Precipitable_Water
1.53 1.70 1.68 1.65 1.60 1.51 1.47 1.43 1.43 1.38 1.36 1.36 1.37 1.39 1.35 1.32 1.25 1.12 1.07 1.09 1.23 1.38 1.41 1.27 1.13 1.09 1.14 1.18 1.24 1.06 0.97 0.99 1.05 1.07 1.05 0.96 1.00 1.05 1.20 1.18 1.24 0.96 0.95
1.60 1.66 1.70 1.68 1.66 1.58 1.52 1.45 1.40 1.37 1.32 1.30 1.32 1.32 1.29 1.25 1.19 1.14 1.15 1.32 1.44 1.51 1.49 1.30 1.12 1.11 1.05 1.05 1.06 0.92 0.90 0.93 0.98 1.00 1.02 1.02 1.05 1.18 1.25 1.36 1.33 1.22 1.17
1.57 1.62 1.64 1.67 1.69 1.63 1.56 1.46 1.43 1.42 1.36 1.34 1.32 1.32 1.29 1.25 1.15 1.23 1.30 1.45 1.56 1.53 1.39 1.13 1.01 1.02 0.93 0.90 0.89 0.86 0.86 0.95 1.00 1.02 1.05 1.15 1.21 1.13 1.21 1.28 1.23 1.29 1.36
1.58 1.64 1.60 1.61 1.65 1.66 1.59 1.52 1.47 1.45 1.40 1.33 1.30 1.37 1.34 1.27 1.22 1.31 1.47 1.56 1.63 1.42 1.24 0.94 0.92 0.92 0.94 0.93 0.93 0.92 0.89 0.86 0.87 0.96 0.99 1.06 1.13 1.08 1.09 1.12 1.11 1.11 1.11
1.52 1.56 1.53 1.55 1.55 1.61 1.65 1.56 1.49 1.46 1.43 1.40 1.38 1.42 1.47 1.38 1.36 1.42 1.62 1.61 1.54 1.32 1.16 0.81 0.82 0.85 0.93 0.97 0.99 0.97 0.95 0.92 0.85 0.87 0.93 0.96 0.99 1.00 0.97 1.01 1.02 0.99 0.99
1.54 1.57 1.53 1.50 1.48 1.49 1.60 1.64 1.54 1.45 1.49 1.50 1.43 1.42 1.53 1.53 1.57 1.62 1.63 1.56 1.46 1.25 0.83 0.76 0.75 0.87 0.97 1.01 1.02 0.98 0.95 0.92 0.85 0.84 0.88 0.90 0.93 0.95 0.91 0.89 0.89 0.93 0.95
1.52 1.56 1.54 1.48 1.44 1.40 1.46 1.59 1.55 1.47 1.40 1.41 1.48 1.44 1.51 1.61 1.62 1.66 1.58 1.50 1.36 1.22 0.81 0.75 0.78 0.90 0.97 1.00 1.00 1.00 0.99 0.94 0.83 0.85 0.88 0.93 0.96 0.96 0.93 0.92 0.90 0.90 0.89
1.54 1.57 1.59 1.53 1.46 1.40 1.37 1.46 1.50 1.46 1.42 1.38 1.41 1.50 1.48 1.60 1.64 1.67 1.48 1.37 1.25 1.17 0.84 0.80 0.82 0.91 0.95 0.97 0.99 0.99 1.00 0.96 0.87 0.86 0.90 0.93 0.98 0.98 0.98 0.97 0.97 0.96 0.96
1.76 1.66 1.60 1.55 1.51 1.47 1.43 1.42 1.43 1.42 1.41 1.41 1.39 1.42 1.46 1.57 1.62 1.61 1.42 1.31 1.28 1.14 0.86 0.85 0.86 0.91 0.93 0.96 0.96 0.97 0.98 0.99 0.93 0.90 0.91 0.95 0.98 1.00 1.00 0.99 0.99 1.00 0.98
1.73 1.80 1.70 1.62 1.57 1.52 1.51 1.44 1.37 1.39 1.41 1.38 1.38 1.37 1.49 1.57 1.61 1.60 1.42 1.36 1.28 1.16 0.91 0.89 0.89 0.89 0.93 0.95 0.95 0.95 0.97 0.97 0.96 0.95 0.93 0.97 1.00 1.00 0.99 0.98 1.00 1.01 0.99
1.60 1.81 1.83 1.72 1.63 1.57 1.51 1.48 1.41 1.36 1.32 1.38 1.42 1.42 1.54 1.57 1.63 1.57 1.48 1.37 1.29 1.19 1.03 0.94 0.94 0.94 0.93 0.94 0.95 0.95 0.95 0.93 0.94 0.95 0.94 0.95 0.98 0.99 0.97 0.97 0.99 1.01 0.99
1.40 1.65 1.77 1.85 1.74 1.65 1.53 1.45 1.46 1.44 1.37 1.41 1.50 1.48 1.59 1.58 1.62 1.60 1.55 1.36 1.35 1.25 1.13 1.07 1.02 0.99 0.95 0.90 0.92 0.94 0.91 0.90 0.92 0.91 0.91 0.92 0.95 0.96 0.95 0.94 0.97 1.02 1.02
1.18 1.53 1.63 1.62 1.69 1.78 1.68 1.53 1.46 1.47 1.41 1.39 1.52 1.49 1.52 1.53 1.59 1.62 1.59 1.38 1.39 1.32 1.23 1.15 1.05 0.98 0.92 0.88 0.86 0.88 0.88 0.86 0.85 0.91 0.92 0.93 0.95 0.97 0.98 0.98 1.01 1.05 1.04
0.93 1.25 1.57 1.64 1.61 1.67 1.76 1.71 1.61 1.52 1.48 1.42 1.48 1.55 1.48 1.45 1.54 1.59 1.60 1.35 1.36 1.32 1.22 1.15 1.05 0.96 0.91 0.87 0.83 0.82 0.85 0.85 0.86 0.90 0.96 0.96 0.99 1.04 1.05 1.09 1.11 1.11 1.09
0.77 1.05 1.37 1.55 1.53 1.57 1.62 1.63 1.63 1.57 1.54 1.50 1.50 1.54 1.54 1.50 1.54 1.61 1.63 1.41 1.35 1.37 1.25 1.15 1.05 0.95 0.86 0.87 0.89 0.86 0.86 0.88 0.87 0.91 0.98 1.02 1.05 1.07 1.08 1.13 1.13 1.14 1.09
0.68 0.90 1.21 1.34 1.49 1.53 1.56 1.61 1.57 1.56 1.57 1.56 1.52 1.52 1.57 1.57 1.59 1.63 1.63 1.44 1.34 1.28 1.30 1.20 1.07 0.93 0.85 0.88 0.88 0.90 0.90 0.94 0.96 0.98 1.03 1.05 1.10 1.11 1.13 1.14 1.13 1.17 1.18
0.55 0.74 1.06 1.20 1.39 1.52 1.53 1.50 1.56 1.57 1.57 1.53 1.52 1.57 1.58 1.61 1.63 1.66 1.71 1.53 1.35 1.33 1.30 1.25 1.15 0.99 0.88 0.91 0.90 0.91 0.94 0.97 1.03 1.06 1.12 1.11 1.13 1.19 1.21 1.23 1.24 1.23 1.24
0.55 0.64 0.89 1.15 1.26 1.33 1.42 1.48 1.49 1.54 1.57 1.48 1.49 1.52 1.59 1.62 1.70 1.69 1.74 1.66 1.45 1.29 1.29 1.24 1.12 0.96 0.94 0.95 0.92 0.93 0.95 1.00 1.06 1.11 1.16 1.18 1.18 1.22 1.25 1.29 1.30 1.30 1.30
0.56 0.63 0.78 1.02 1.15 1.22 1.31 1.39 1.45 1.49 1.49 1.47 1.46 1.49 1.51 1.53 1.65 1.71 1.77 1.66 1.52 1.39 1.32 1.29 1.11 1.04 0.96 0.93 0.93 0.94 1.00 1.03 1.07 1.10 1.12 1.20 1.25 1.27 1.30 1.29 1.34 1.33 1.27
0.49 0.62 0.76 0.93 1.05 1.10 1.11 1.25 1.30 1.36 1.39 1.40 1.37 1.39 1.47 1.44 1.42 1.61 1.64 1.62 1.57 1.51 1.31 1.24 1.11 1.13 1.02 0.97 0.97 0.98 1.05 1.08 1.10 1.11 1.15 1.24 1.26 1.32 1.32 1.39 1.42 1.40 1.30
0.47 0.60 0.76 0.89 1.02 1.09 1.10 1.06 1.09 1.08 1.17 1.20 1.27 1.33 1.36 1.33 1.34 1.41 1.54 1.52 1.41 1.32 1.33 1.23 1.14 1.10 1.00 1.05 1.02 1.02 1.05 1.12 1.15 1.18 1.25 1.31 1.35 1.35 1.42 1.39 1.41 1.43 1.35
0.46 0.61 0.70 0.84 0.97 1.04 1.08 1.08 1.09 1.08 1.11 1.14 1.20 1.28 1.31 1.27 1.26 1.31 1.46 1.50 1.46 1.34 1.31 1.17 1.16 1.05 1.03 1.12 0.99 1.00 0.92 1.06 1.18 1.23 1.28 1.30 1.31 1.36 1.43 1.42 1.39 1.45 1.40
0.58 0.65 0.72 0.79 0.85 0.98 1.05 1.09 1.09 1.11 1.14 1.10 1.08 1.08 1.20 1.22 1.24 1.32 1.38 1.41 1.43 1.46 1.27 1.26 1.16 1.05 1.01 1.13 1.14 1.08 0.98 0.91 1.08 1.21 1.23 1.26 1.29 1.35 1.39 1.38 1.42 1.43 1.41
0.63 0.72 0.75 0.82 0.82 0.90 0.99 1.01 0.97 0.94 0.94 1.02 1.05 1.12 1.16 1.20 1.23 1.30 1.49 1.51 1.47 1.38 1.30 1.20 1.22 1.18 1.17 1.06 1.22 1.29 1.29 1.22 1.05 0.99 1.20 1.24 1.31 1.34 1.39 1.35 1.40 1.42 1.41
0.69 0.74 0.83 0.83 0.85 0.86 0.87 0.89 0.93 0.96 1.08 1.18 1.26 1.32 1.27 1.33 1.37 1.35 1.41 1.47 1.43 1.47 1.28 1.22 1.30 1.28 1.30 1.28 1.29 1.28 1.30 1.27 1.24 1.09 0.96 1.09 1.22 1.30 1.36 1.40 1.40 1.41 1.42
0.72 0.75 0.79 0.83 0.83 0.84 0.88 0.92 0.96 1.07 1.21 1.24 1.41 1.40 1.40 1.42 1.43 1.49 1.49 1.47 1.42 1.35 1.29 1.35 1.36 1.38 1.39 1.36 1.38 1.34 1.22 1.18 1.16 1.14 1.08 1.13 1.12 1.21 1.33 1.37 1.40 1.44 1.38
Wind_Speed
21 21 21 19 17 17 16 14 13 11 10 9 8 8 8 7 7 6 6 6 6 4 4 5 5 6 6 7 7 6 6 6 6 6 5 5 6 6 6 7 8 8 8
17 21 22 21 20 18 17 16 15 13 12 11 10 9 8 8 8 8 7 7 6 6 5 5 5 5 5 6 6 6 6 6 6 6 6 6 6 6 7 7 7 8 8
15 19 22 23 22 21 19 18 17 15 14 12 11 10 10 9 9 9 8 7 7 6 5 5 5 5 6 6 6 6 6 6 6 5 5 5 5 5 6 7 7 7 8
15 17 19 21 24 23 22 20 19 17 16 14 13 12 11 11 10 10 9 9 8 6 5 5 5 5 5 5 5 5 5 5 4 4 4 4 4 4 4 5 6 6 6
17 18 19 19 20 23 23 23 21 19 18 16 15 14 13 13 12 12 10 10 9 7 6 6 6 6 5 5 4 4 4 4 4 3 3 2 2 3 3 4 4 5 5
19 19 20 20 20 21 24 24 23 22 20 18 17 16 15 15 14 13 12 11 10 9 8 8 7 7 6 4 4 4 4 3 3 2 2 2 1 1 2 3 4 4 5
20 20 20 21 20 20 21 24 25 24 22 21 19 18 18 17 16 15 14 13 12 11 10 9 9 8 7 5 4 4 3 3 2 2 2 1 0 1 2 2 3 4 5
22 22 22 21 21 21 20 22 24 25 25 24 22 21 20 19 18 17 15 14 14 13 12 11 10 9 8 7 5 5 4 3 3 2 2 2 2 2 3 3 4 5 6
25 24 24 24 23 22 22 22 23 24 26 26 25 24 23 21 20 19 18 16 15 14 14 13 12 11 10 8 7 6 6 5 4 4 4 4 4 4 5 5 6 6 7
27 27 26 25 26 25 24 23 23 24 25 26 27 26 25 24 23 21 20 18 17 16 15 14 13 12 11 10 9 8 8 7 6 6 6 6 6 7 7 7 8 8 8
28 29 28 28 27 27 27 26 25 25 25 25 27 28 28 26 25 24 22 21 20 19 17 16 15 14 13 12 11 10 9 9 9 9 8 8 8 9 9 9 9 10 10
28 30 30 28 28 28 27 27 27 26 26 26 26 28 29 29 27 26 24 23 22 21 19 18 17 16 15 14 13 12 12 11 11 11 11 11 11 11 11 11 11 11 12
33 31 31 31 29 29 28 28 28 28 28 28 27 28 29 30 30 28 27 25 24 23 22 20 19 18 17 16 15 14 14 13 13 13 13 12 12 12 12 13 13 14 14
35 35 34 31 31 30 28 28 28 28 28 28 28 28 29 30 31 30 30 28 27 26 24 23 21 20 19 18 17 16 16 15 15 15 14 14 14 14 14 14 15 15 15
38 37 37 35 33 32 31 30 29 28 29 29 28 29 30 29 30 32 32 31 30 29 27 25 23 22 21 20 19 18 17 17 17 16 16 15 15 15 15 16 16 17 17
41 40 40 38 37 34 32 32 30 30 29 30 30 31 32 31 32 32 32 34 33 33 30 28 26 24 23 22 21 20 19 19 18 18 18 18 17 17 17 17 17 17 18
45 43 42 42 39 37 36 34 32 32 31 30 30 33 33 34 34 35 34 34 36 36 33 30 29 27 25 24 23 22 21 21 20 20 20 20 20 20 20 19 20 20 20
48 46 44 44 43 41 39 37 36 35 34 33 32 32 34 35 35 36 36 36 37 37 36 34 32 29 28 26 25 24 23 23 22 22 22 22 22 22 23 23 23 23 23
51 48 47 46 46 45 42 40 39 38 38 36 35 34 34 35 37 36 37 40 41 39 37 35 33 31 30 28 27 26 25 25 24 24 24 24 24 25 25 26 26 25 25
53 52 50 48 48 47 46 43 42 43 43 41 39 38 39 38 37 39 38 35 35 37 37 38 36 34 33 31 30 28 27 27 27 27 26 26 26 26 27 28 27 27 27
51 53 51 49 48 47 47 46 45 44 45 45 44 45 43 43 41 41 41 41 40 39 38 38 37 35 32 31 30 30 30 29 28 28 27 27 29 30 30 30 30 29 28
49 50 51 50 47 47 46 46 43 42 43 44 45 46 47 45 43 41 43 45 40 37 39 40 39 36 35 34 31 29 29 29 29 30 30 30 31 33 32 31 30 29 28
45 47 48 49 48 46 45 44 45 44 42 40 42 45 48 48 45 44 41 43 46 44 40 39 38 36 34 34 33 30 29 29 28 29 32 33 34 34 34 33 31 29 28
41 44 45 45 46 45 43 43 44 43 42 43 43 43 44 45 45 45 44 42 41 44 41 40 39 38 37 35 34 34 34 32 31 31 31 33 33 33 33 33 32 31 30
37 41 43 44 41 41 42 41 41 41 40 37 34 34 37 39 41 42 42 42 39 37 39 41 41 39 37 34 34 31 30 30 32 34 34 32 33 34 32 31 31 30 28
33 36 40 41 39 38 39 38 37 37 35 31 29 31 30 31 33 36 38 38 37 38 38 38 38 38 37 34 30 31 32 32 31 34 35 35 34 32 30 29 29 29 29
Wind_Direction
231 221 216 214 212 210 210 210 209 207 204 203 202 202 199 195 192 185 177 167 160 150 136 124 115 107 108 106 109 112 117 116 112 106 107 97 88 73 60 60 57 56 57
223 216 216 216 214 212 212 213 213 212 210 208 206 206 205 200 194 188 178 174 172 160 147 136 127 117 118 113 112 111 115 115 113 108 102 96 91 74 65 65 58 58 57
219 215 215 216 216 216 216 216 215 214 213 213 211 209 207 205 199 191 187 185 176 167 162 153 143 132 126 121 117 114 115 118 116 112 105 94 86 77 66 62 58 58 57
219 212 213 216 219 220 219 218 218 218 217 216 216 213 209 206 203 198 196 191 184 181 178 170 159 149 138 132 129 128 126 121 122 120 112 100 85 71 65 56 53 49 47
221 215 215 216 219 221 221 221 220 219 220 220 218 215 212 209 207 206 204 198 197 197 194 183 175 167 155 144 138 140 145 137 129 131 124 111 93 73 57 47 41 36 33
221 220 220 220 221 223 222 222 221 222 221 221 221 219 217 214 212 210 208 207 205 205 200 194 189 181 175 166 155 151 149 148 145 143 140 128 103 67 40 28 21 17 13
220 220 221 222 223 224 223 223 224 224 224 224 224 222 220 218 216 213 212 213 213 212 207 202 198 195 193 191 184 178 172 174 173 175 179 187 210 329 344 348 349 351 350
225 226 225 224 224 224 223 224 225 227 227 226 226 225 223 221 218 216 218 219 218 215 211 209 207 205 205 207 207 202 202 206 210 216 226 239 255 278 302 314 321 326 329
229 228 228 227 226 226 227 228 228 229 229 228 227 227 224 223 221 220 221 221 219 217 215 214 213 213 214 217 220 221 224 229 232 242 249 258 266 276 286 298 305 310 314
231 230 230 230 229 229 230 231 231 231 231 230 229 228 226 224 223 222 222 222 220 219 218 218 218 220 222 225 229 233 235 240 245 254 259 265 268 275 282 289 295 300 305
235 231 232 232 232 232 232 232 232 233 232 231 230 228 227 226 224 224 224 224 221 220 221 221 223 225 227 230 234 240 242 246 251 257 263 267 271 274 279 286 290 293 298
238 233 233 233 234 232 233 233 233 234 233 233 231 230 228 227 226 224 226 225 222 222 223 224 226 228 231 234 238 242 248 252 255 259 264 267 270 275 278 283 285 288 292
237 237 236 235 235 234 235 234 234 235 235 233 232 230 229 228 227 227 227 226 225 224 226 227 229 231 234 238 242 245 250 255 258 259 262 266 269 273 278 281 283 285 288
238 237 236 235 235 233 233 234 234 233 232 232 232 231 230 230 228 228 228 228 228 227 227 229 231 234 237 240 244 248 251 255 258 259 262 265 268 273 276 280 282 283 286
238 237 235 235 235 234 233 235 234 233 231 231 233 231 231 231 230 230 231 230 230 228 229 230 233 236 239 242 246 248 252 255 257 259 261 264 267 271 276 282 283 283 285
238 237 235 234 234 233 233 233 233 233 231 233 234 234 233 233 233 233 233 232 231 230 229 232 234 238 241 244 248 250 253 255 256 258 261 263 266 270 273 281 283 282 284
238 237 236 233 232 232 232 234 234 234 232 234 236 235 235 235 235 235 236 236 231 228 230 233 236 239 242 245 249 251 254 256 256 258 262 263 265 268 271 278 281 280 283
237 236 236 234 232 233 234 235 235 233 237 238 240 238 236 236 238 238 236 241 228 229 231 234 236 239 243 245 249 252 255 256 256 259 261 263 265 268 270 276 278 280 282
237 236 235 234 233 233 234 235 236 238 238 240 241 241 238 237 238 240 238 235 235 232 232 232 235 239 242 246 249 254 256 257 259 260 261 264 266 269 271 275 276 279 281
235 236 234 234 233 234 235 235 237 240 241 243 244 243 241 243 242 238 238 237 227 227 233 235 237 239 243 247 250 254 256 258 260 262 263 265 267 271 271 274 276 277 279
234 233 232 232 233 233 235 236 239 242 243 243 244 245 243 244 245 243 238 233 236 234 235 234 238 237 240 243 251 255 257 259 262 262 263 267 271 272 272 273 271 277 276
233 231 230 230 232 233 235 236 239 241 244 244 244 244 243 243 244 241 235 228 230 236 237 234 234 238 243 246 250 255 259 262 262 263 265 270 272 273 272 270 269 272 273
230 228 228 229 231 233 235 236 238 242 244 244 245 246 244 242 242 238 234 231 235 238 235 233 235 237 240 246 249 253 258 261 265 266 267 271 273 272 269 266 266 269 270
228 226 226 227 229 232 234 236 239 241 244 247 248 247 241 238 239 233 232 232 237 231 233 233 237 241 244 247 250 253 259 264 265 268 270 276 274 272 268 264 263 265 267
226 225 224 226 229 231 234 237 240 240 242 245 242 240 236 235 231 228 229 232 231 229 234 237 240 241 242 246 251 253 256 263 264 266 272 272 274 275 268 262 262 262 261
226 226 224 224 230 232 233 236 236 235 233 236 237 228 227 223 223 223 227 228 231 232 237 237 236 239 239 245 248 249 257 261 264 268 270 269 274 271 264 261 260 257 263